Location: ??????
(55.6361°N, 38.0803°E)
Time: 03:04:16
(UTC+00:00)

Cosmos 405 Rocket - Pass Details

Date: 30 March 2020
Orbit: 490 x 554 km, 81.3° (Epoch: 31 May)

Event Time Altitude Azimuth Distance (km) Brightness Sun altitude
Rises 01:54:07 0° 332° (NNW) 2,585 6.2 -10.2°
Reaches altitude 10° 01:57:02 10° 306° (NW) 1,696 5.0 -9.8°
Maximum altitude 01:59:00 14° 274° (W) 1,460 4.4 -9.6°
Enters shadow 01:59:54 13° 258° (WSW) 1,511 4.4 -9.5°
